Hourly Weather Roundup
Issued by NWS Central Illinois

Home | Current Version | Previous Version | Text Only | Print | Product List | Glossary On
Versions: 1 2 3 4 5 6 7 8 9 10 11 12 13 14 15 16 17 18 19 20 21 22 23 24 25 26 27 28 29 30 31 32 33 34 35 36 37 38 39 40 41 42 43 44 45 46 47 48 49 50
000
NZUS43 KILX 252010
HWRILX

AREA WEATHER ROUNDUP
NATIONAL WEATHER SERVICE, LINCOLN IL
200 PM CST THU DEC 25 2014


CITY           SKY/WX    TMP DP  RH WIND       PRES   REMARKS
BLOOMINGTON    MOSUNNY   46  37  70 S17       29.98R
CHAMPAIGN      SUNNY     44  36  73 S18       30.01R
DECATUR        SUNNY     47  34  60 S17G26    30.00S
FLORA          SUNNY     47  36  65 S16G24    30.07S
GALESBURG      SUNNY     46  34  62 S12G20    29.89F
JACKSONVILLE   SUNNY     49  35  57 S16       29.94F
LACON          SUNNY     46  31  56 SW12      29.93F
LAWRENCEVILLE  MOSUNNY   48  35  60 S15       30.09S
LITCHFIELD     SUNNY     46  36  69 S21G28    29.99R
$$


CITY           SKY/WX    TMP DP  RH WIND       PRES   REMARKS
LINCOLN        SUNNY     49  35  60 S9        29.97S
MACOMB         SUNNY     47  35  62 S12       29.92F
MATTOON        MOSUNNY   44  35  70 S15G23    30.02S
MT CARMEL AP   MOSUNNY   48  34  57 S18       30.08F
OLNEY-NOBLE AP MOSUNNY   45  34  65 S12       30.07F
PARIS          SUNNY     44  37  75 S14       30.05F
PEORIA         SUNNY     49  34  56 S16       29.93F
PONTIAC        MOSUNNY   46  36  68 S16G22    29.98S
RANTOUL        PTSUNNY   45  37  75 S15       30.01R
ROBINSON       SUNNY     46  35  64 S12       30.09S
SPRINGFIELD    SUNNY     49  35  58 S18G29    29.97R
TAYLORVILLE    SUNNY     45  36  70 S16G25    29.99R
$$

...REGIONAL REPORTS...


CITY           SKY/WX    TMP DP  RH WIND       PRES   REMARKS
CHICAGO O`HARE PTSUNNY   41  31  67 S14       29.95R WCI  33
KANKAKEE       PTSUNNY   43  36  75 SW14G21   30.01R
MOLINE         SUNNY     48  31  51 S14       29.86F
MOUNT VERNON   SUNNY     48  36  61 S15       30.06F
PITTSFIELD     SUNNY     49  33  54 S12G17    29.92F
QUINCY         SUNNY     49  31  49 S15       29.89F
ROCKFORD       PTSUNNY   44  32  62 S17       29.93S
$$


CITY           SKY/WX    TMP DP  RH WIND       PRES   REMARKS
BURLINGTON     MOSUNNY   48  33  56 S14       29.86F
CEDAR RAPIDS   PTSUNNY   47  33  58 S12       29.80F
DES MOINES     MOSUNNY   49  32  52 S17       29.72F
KIRKSVILLE     SUNNY     50  31  48 S18       29.82F
OTTUMWA        MOSUNNY   49  31  49 S15G26    29.78F
ST LOUIS       MOSUNNY   53  32  44 S9        29.97F
$$


CITY           SKY/WX    TMP DP  RH WIND       PRES   REMARKS
TERRE HAUTE    MOSUNNY   44  33  65 S15       30.07S
EVANSVILLE     MOSUNNY   49  34  56 S15G22    30.12F
INDIANAPOLIS   PTSUNNY   40  31  70 SW12      30.06R WCI  33
LAFAYETTE      CLOUDY    41  32  70 SW13G21   30.04S WCI  34
MADISON        PTSUNNY   40  31  70 S9        29.86S WCI  34
MILWAUKEE      PTSUNNY   39  29  67 SW16      29.91R WCI  30
$$




USA.gov is the U.S. government's official web portal to all federal, state and local government web resources and services.